Location: Spruce Knob
(38.6995°N, 79.5330°W)
Time: 09:40:59
(UTC-04:00)

AAUSAT CUBESAT 2 - Visible Passes

Search period start: 21 March 2023 00:00
Search period end: 31 March 2023 00:00
Orbit: 558 x 564 km, 97.6° (Epoch: 20 March)

Date Brightness Start Highest point End Pass type
(mag) Time Alt. Az. Time Alt. Az. Time Alt. Az.
21 Mar ? 04:38:29 10° ENE 04:39:29 11° E 04:40:29 10° ESE visible
21 Mar ? 06:10:49 10° N 06:14:44 51° WNW 06:18:37 10° SSW visible
22 Mar ? 04:37:51 10° ENE 04:38:41 11° E 04:39:32 10° ESE visible
22 Mar ? 06:10:01 10° N 06:13:57 52° WNW 06:17:51 10° SSW visible
23 Mar ? 04:37:16 10° E 04:37:52 10° E 04:38:28 10° E visible
23 Mar ? 06:09:11 10° N 06:13:08 53° WNW 06:17:02 10° SSW visible
24 Mar ? 06:08:20 10° N 06:12:17 55° WNW 06:16:12 10° SSW visible
25 Mar ? 06:07:27 10° N 06:11:25 56° WNW 06:15:20 10° SSW visible
26 Mar ? 06:06:33 10° N 06:10:31 58° WNW 06:14:27 10° SSW visible
27 Mar ? 06:05:37 10° N 06:09:36 59° WNW 06:13:32 10° SSW visible
28 Mar ? 06:04:39 10° N 06:08:38 61° WNW 06:12:35 10° SSW visible
29 Mar ? 06:03:40 10° N 06:07:40 63° WNW 06:11:37 10° SSW visible
30 Mar ? 06:02:39 10° N 06:06:39 64° WNW 06:10:36 10° SSW visible
